GW5292 Weather Reports


time (UTC)temp
F
wind
direction
speed
knots
gust
knots
rain 1hr
in
rain 24hr
in
rain mn
in
humidity
%
barometer
mb
20260904164507 82 159 0.9 2.6 0.00 0.20 0.00 71 1013.2
20260904163004 82 236 0.9 3.5 0.00 0.20 0.00 69 1013.4
20260904161505 81 30 0.9 4.3 0.00 0.20 0.00 74 1013.3
20260904160006 81 159 0.0 1.7 0.00 0.20 0.00 71 1013.3
20260904154504 82 219 0.9 2.6 0.00 0.20 0.00 69 1013.3
20260904153008 81 228 0.9 2.6 0.00 0.20 0.00 73 1013.5
20260904151507 82 319 0.0 1.7 0.00 0.20 0.00 76 1013.4
20260904150010 80 11 0.9 2.6 0.00 0.20 0.00 77 1013.5
20260904144508 79 190 0.9 2.6 0.00 0.20 0.00 76 1013.6
20260904143006 78 209 0.9 3.5 0.00 0.20 0.00 77 1013.6
20260904141509 76 184 0.9 1.7 0.00 0.20 0.00 81 1013.6
20260904140011 76 196 0.0 4.3 0.00 0.20 0.00 80 1013.7
20260904134511 76 187 1.7 3.5 0.00 0.20 0.00 81 1013.6
20260904133013 75 182 0.9 2.6 0.00 0.20 0.00 82 1013.6
20260904131512 75 186 0.9 2.6 0.00 0.20 0.00 86 1013.7
20260904130012 74 215 0.9 1.7 0.00 0.20 0.00 86 1013.7
20260904124513 74 181 0.9 1.7 0.00 0.20 0.00 87 1013.8
20260904123014 73 198 0.0 1.7 0.00 0.20 0.00 89 1013.7
20260904121513 72 192 0.0 1.7 0.00 0.20 0.00 91 1013.5
20260904120017 71 207 0.9 1.7 0.00 0.20 0.00 93 1013.8
20260904114515 71 194 0.0 1.7 0.00 0.20 0.00 94 1013.6
20260904113020 70 198 0.0 1.7 0.00 0.20 0.00 95 1013.4
20260904111519 69 195 0.9 1.7 0.00 0.20 0.00 95 1013.4
20260904110036 69 199 0.0 0.0 0.00 0.21 0.00 94 1013.3
20260904104518 70 199 0.0 0.9 0.00 0.21 0.00 94 1013.0
20260904103023 70 199 0.0 1.7 0.00 0.21 0.00 93 1012.8
20260904101524 70 197 0.9 1.7 0.00 0.22 0.00 94 1012.8
20260904100025 70 201 0.9 1.7 0.00 0.24 0.00 94 1012.7
20260904094523 70 189 0.9 1.7 0.00 0.25 0.00 94 1012.8
20260904093023 71 189 0.9 1.7 0.00 0.25 0.00 93 1012.9
20260904091525 71 207 0.9 2.6 0.00 0.25 0.00 93 1012.9
20260904090028 71 203 1.7 2.6 0.00 0.25 0.00 94 1012.9
20260904084526 71 188 0.9 1.7 0.00 0.26 0.00 95 1012.8
20260904083029 72 209 0.9 1.7 0.00 0.29 0.00 95 1012.6
20260904081526 72 198 1.7 2.6 0.00 0.33 0.00 96 1012.7
20260904080008 72 199 1.7 1.7 0.00 0.36 0.00 97 1012.4
20260904074515 71 155 0.0 0.9 0.00 0.40 0.00 97 1012.5
20260904073017 72 42 0.0 0.0 0.00 0.43 0.00 96 1012.4
20260904071522 72 42 0.0 0.0 0.00 0.49 0.00 96 1012.2
20260904070043 72 42 0.0 0.0 0.00 0.52 0.00 96 1011.7
20260904064508 72 42 0.0 0.0 0.00 0.52 0.00 96 1011.7
20260904063016 72 41 0.0 0.0 0.00 0.52 0.00 95 1011.3
20260904061524 73 41 0.0 0.0 0.00 0.52 0.00 96 1011.6
20260904060032 73 41 0.0 0.0 0.00 0.52 0.00 96 1011.8
20260904054533 73 41 0.0 0.0 0.00 0.52 0.00 96 1011.8
20260904053013 73 41 0.0 0.0 0.00 0.52 0.00 95 1012.1
20260904051517 74 41 0.0 0.0 0.00 0.58 0.00 95 1012.2
20260904050026 74 42 0.0 0.0 0.00 0.84 0.00 95 1012.3
20260904044535 74 42 0.0 0.0 0.17 1.09 0.00 95 1012.3
20260904043035 75 42 0.0 0.0 0.20 1.21 0.00 94 1012.5
20260904041516 75 42 0.0 2.6 0.20 1.21 0.00 94 1012.5
20260904040023 76 338 0.0 1.7 0.20 1.21 0.00 92 1012.8
20260904034544 77 212 2.6 4.3 0.03 1.04 1.04 88 1013.2
20260904033034 76 208 0.0 1.7 0.00 1.01 1.01 87 1012.7
20260904031534 76 208 0.0 0.0 0.00 1.01 1.01 88 1013.1
20260904030020 76 208 0.0 0.9 0.00 1.01 1.01 88 1013.2
20260904024526 76 208 0.0 0.9 0.00 1.01 1.01 89 1013.3
20260904023029 76 208 0.0 0.9 0.00 1.01 1.01 88 1012.9
20260904021531 77 208 0.0 0.0 0.00 1.01 1.01 86 1012.9
20260904020036 78 208 0.0 0.0 0.00 1.01 1.01 84 1013.0
20260904014523 78 208 0.0 1.7 0.00 1.01 1.01 83 1013.4
20260904013027 79 208 0.0 0.0 0.00 1.01 1.01 81 1013.5
20260904011557 79 208 0.9 2.6 0.00 1.01 1.01 81 1013.3
20260904010036 78 213 0.9 1.7 0.00 1.01 1.01 82 1013.5
20260904004532 79 208 0.0 1.7 0.00 1.01 1.01 82 1013.5
20260904003027 79 208 0.9 1.7 0.00 1.01 1.01 81 1013.7
20260904001506 79 213 0.0 1.7 0.00 1.01 1.01 80 1013.6
20260904000013 79 200 0.9 1.7 0.00 1.01 1.01 80 1013.0
20260903234534 79 200 0.0 0.0 0.00 1.01 1.01 81 1012.9
20260903233026 80 200 0.0 1.7 0.00 1.01 1.01 79 1013.2
20260903231527 80 200 0.9 1.7 0.00 1.01 1.01 80 1013.0
20260903230012 81 199 0.0 0.0 0.00 1.01 1.01 79 1013.1
20260903224511 82 199 0.0 0.9 0.00 1.01 1.01 76 1013.2
20260903223017 83 199 0.0 1.7 0.00 1.01 1.01 73 1012.8
20260903221524 84 198 0.9 2.6 0.00 1.01 1.01 71 1012.5
20260903220031 84 213 1.7 3.5 0.00 1.01 1.01 71 1012.8
20260903214509 85 194 0.9 2.6 0.00 1.01 1.01 71 1012.5
20260903213019 85 208 0.0 1.7 0.00 1.01 1.01 70 1012.4
20260903211521 86 208 0.9 2.6 0.00 1.01 1.01 67 1012.1
20260903210027 86 9 0.0 1.7 0.00 1.01 1.01 67 1012.2
20260903204530 86 153 0.0 1.7 0.00 1.01 1.01 68 1012.4
20260903203026 86 189 0.0 2.6 0.00 1.02 1.01 69 1012.5
20260903201531 85 212 1.7 2.6 0.00 1.02 1.01 68 1012.6
20260903200025 84 165 0.9 2.6 0.00 1.02 1.01 71 1012.8
20260903194530 83 194 0.9 2.6 0.00 1.02 1.01 71 1013.0
20260903193017 83 180 0.9 4.3 0.00 1.02 1.01 70 1013.1
20260903191515 84 234 2.6 4.3 0.00 1.02 1.01 68 1013.3
20260903190026 84 195 1.7 5.2 0.00 1.02 1.01 69 1013.5
20260903184531 84 222 3.5 4.3 0.00 1.02 1.01 70 1013.6
20260903183039 83 188 1.7 5.2 0.00 1.02 1.01 70 1013.8
20260903181515 83 190 2.6 6.1 0.00 1.02 1.01 70 1014.1
20260903180006 83 185 1.7 6.1 0.00 1.02 1.01 73 1014.1
20260903174505 82 191 3.5 6.1 0.00 1.02 1.01 72 1014.4
20260903173006 82 198 1.7 5.2 0.00 1.02 1.01 75 1014.3
20260903171509 82 130 1.7 4.3 0.00 1.03 1.01 77 1014.5
20260903170018 81 202 2.6 5.2 0.00 1.04 1.01 76 1014.8